Temp
6 6 7 8 6 5 5 5 6 7 6 5 5 5 6 6 5 6 6 6 6 6 6 6 6 6 5 5 4 5 5 5 5 5 5 5 5 5 4 4 4 3 3 3
5 6 6 6 5 5 5 5 5 6 5 4 4 4 5 5 6 6 6 6 6 6 6 6 6 6 5 5 4 4 4 4 4 4 4 4 4 4 3 3 3 3 2 2
5 5 5 5 5 4 4 4 5 4 4 4 3 4 6 6 6 6 5 5 5 6 6 6 5 5 4 3 3 3 3 3 3 3 3 3 3 3 2 2 2 2 1 0
3 3 4 4 4 4 3 4 3 3 3 2 2 2 4 6 7 7 7 6 6 6 6 5 5 4 3 3 3 3 3 2 2 2 2 2 2 1 1 1 -0 -0 -0 -0
4 3 3 4 5 4 2 3 2 2 2 2 2 1 3 5 7 6 6 6 5 5 5 5 4 4 3 3 2 2 1 1 1 1 0 0 -0 -1 -1 -1 -1 -1 -1 -1
2 2 2 3 4 3 2 2 2 2 2 -2 3 2 2 4 5 5 6 6 5 4 4 4 3 2 1 1 1 1 0 0 -0 -0 -1 -1 -1 -1 -1 -1 -1 -1 -1 -1
2 1 1 2 2 2 2 1 1 -1 -2 -1 2 1 4 4 5 5 5 5 5 5 5 4 3 1 -0 -0 -0 -0 -0 -1 -1 -2 -2 -2 -2 -2 -2 -2 -2 -2 -3 -3
3 2 3 3 3 3 2 2 3 -1 -3 -2 1 1 4 4 4 4 4 4 4 4 4 4 2 1 0 -1 -1 -1 -2 -2 -3 -3 -3 -3 -2 -2 -2 -3 -3 -4 -4 -4
3 3 4 3 3 2 1 1 2 1 -1 -2 2 2 3 3 4 4 3 3 3 3 3 2 2 2 -0 -2 -2 -3 -3 -3 -3 -3 -3 -3 -3 -3 -4 -4 -5 -5 -6 -6
3 2 3 2 2 1 1 2 1 1 -3 -5 -1 1 3 3 2 3 2 2 2 2 2 1 1 -1 -1 -3 -3 -3 -3 -3 -3 -3 -3 -4 -4 -5 -6 -6 -7 -7 -8 -8
2 2 1 1 1 3 1 -0 1 2 1 -3 -5 0 2 2 2 1 1 1 1 1 1 1 -0 -1 -2 -3 -3 -3 -3 -3 -3 -4 -4 -5 -6 -7 -8 -8 -8 -9 -9 -9
2 2 1 2 2 2 2 2 2 1 -1 0 -1 0 1 1 1 0 0 -0 -0 -0 -1 -1 -2 -3 -3 -4 -4 -4 -4 -4 -4 -5 -5 -6 -7 -8 -9 -9 -9 -10 -10 -10
3 0 0 -0 -1 0 1 1 1 1 1 1 -1 -0 0 -0 -0 -0 -0 -1 -1 -1 -2 -2 -2 -3 -3 -3 -4 -4 -4 -5 -6 -6 -7 -8 -9 -9 -10 -10 -11 -11 -11 -12
1 0 1 1 2 2 -0 0 0 0 -0 -1 -1 0 -0 -0 -0 -1 -2 -2 -2 -3 -3 -3 -4 -4 -4 -4 -5 -6 -7 -7 -7 -8 -9 -9 -10 -11 -11 -11 -12 -12 -13 -13
0 -1 -0 0 1 1 1 1 0 -0 -0 -1 -0 -1 -0 -0 -1 -1 -2 -2 -3 -3 -4 -4 -5 -5 -5 -6 -7 -7 -7 -8 -8 -9 -10 -11 -11 -12 -12 -12 -13 -13 -13 -13
-1 -1 -1 -1 -1 -1 -1 -0 -1 -2 -2 -1 -1 -1 -1 -1 -2 -2 -3 -3 -4 -4 -4 -5 -5 -6 -6 -7 -7 -8 -8 -8 -9 -10 -11 -12 -12 -13 -13 -13 -14 -14 -14 -14
-2 -2 -2 -2 -2 -2 -3 -1 -2 -2 -2 -2 -2 -0 -2 -2 -3 -3 -4 -4 -4 -4 -4 -5 -6 -6 -7 -8 -8 -8 -9 -10 -10 -11 -12 -12 -13 -13 -14 -14 -14 -15 -15 -15
-2 -2 -2 -3 -4 -5 -1 -1 -3 -2 -1 -2 -2 -2 -2 -3 -4 -4 -4 -4 -4 -5 -5 -6 -7 -7 -8 -8 -8 -9 -10 -11 -12 -12 -13 -13 -13 -14 -14 -15 -15 -15 -15 -15
-2 -2 -4 -4 -5 -2 -2 -3 -2 -2 -2 -3 -3 -3 -3 -4 -4 -5 -5 -5 -6 -6 -6 -7 -8 -8 -8 -8 -9 -10 -11 -12 -13 -13 -13 -14 -14 -14 -15 -15 -15 -16 -16 -16
-4 -4 -4 -6 -6 -6 -2 -3 -3 -4 -4 -4 -4 -4 -5 -5 -5 -5 -6 -6 -7 -7 -8 -8 -8 -8 -9 -10 -11 -12 -12 -13 -13 -13 -14 -14 -14 -14 -15 -15 -16 -16 -17 -17
-5 -5 -5 -5 -6 -5 -4 -4 -5 -6 -4 -4 -5 -5 -6 -6 -6 -7 -7 -8 -8 -8 -9 -9 -9 -10 -11 -12 -12 -13 -13 -13 -14 -14 -14 -14 -15 -15 -15 -16 -16 -17 -17 -17
-4 -5 -6 -6 -6 -6 -4 -5 -5 -5 -6 -5 -5 -6 -6 -7 -7 -7 -8 -8 -9 -9 -9 -10 -11 -11 -12 -13 -13 -13 -13 -14 -14 -14 -14 -15 -15 -15 -16 -16 -17 -17 -18 -17
-6 -5 -5 -5 -4 -4 -5 -6 -6 -6 -6 -6 -7 -7 -7 -8 -8 -9 -9 -9 -9 -10 -11 -11 -12 -12 -13 -13 -13 -14 -14 -14 -14 -15 -15 -15 -16 -16 -16 -16 -17 -17 -18 -18
-5 -5 -5 -6 -6 -6 -7 -7 -7 -7 -8 -8 -8 -8 -8 -8 -9 -10 -10 -10 -10 -10 -11 -12 -12 -13 -13 -14 -14 -14 -15 -15 -15 -15 -15 -16 -16 -17 -17 -17 -17 -17 -18 -18
-6 -6 -6 -7 -7 -7 -7 -8 -8 -9 -9 -9 -9 -9 -9 -10 -10 -10 -10 -10 -11 -11 -12 -12 -13 -13 -13 -14 -14 -15 -15 -15 -15 -15 -16 -16 -17 -17 -17 -17 -18 -18 -19 -19
-5 -6 -7 -8 -8 -8 -8 -9 -9 -10 -9 -10 -10 -10 -10 -10 -11 -10 -11 -11 -11 -11 -12 -13 -13 -13 -14 -14 -15 -15 -15 -15 -16 -16 -16 -16 -17 -17 -17 -18 -18 -18 -19 -19
Height
3150 3151 3151 3154 3156 3156 3156 3155 3155 3156 3156 3155 3155 3154 3156 3155 3153 3153 3154 3154 3155 3154 3154 3154 3154 3153 3153 3153 3153 3153 3154 3153 3153 3152 3152 3152 3152 3152 3152 3151 3150 3149 3149 3148
3146 3143 3149 3150 3150 3150 3150 3151 3150 3152 3152 3150 3148 3145 3147 3148 3146 3147 3147 3147 3148 3148 3148 3150 3149 3148 3148 3148 3149 3151 3152 3151 3151 3150 3150 3150 3150 3149 3149 3148 3147 3147 3147 3146
3138 3141 3142 3143 3144 3144 3144 3145 3146 3148 3147 3145 3142 3137 3138 3139 3139 3139 3139 3141 3143 3143 3144 3144 3144 3143 3144 3144 3145 3146 3149 3149 3149 3148 3148 3147 3147 3147 3147 3146 3145 3144 3144 3144
3132 3134 3135 3136 3137 3139 3137 3140 3141 3142 3143 3141 3140 3134 3132 3133 3134 3133 3134 3136 3138 3140 3141 3141 3141 3141 3141 3141 3139 3141 3142 3148 3147 3146 3145 3145 3145 3145 3143 3143 3143 3141 3141 3141
3125 3126 3127 3128 3130 3131 3131 3134 3135 3136 3137 3136 3136 3136 3125 3129 3130 3130 3132 3134 3135 3137 3138 3139 3139 3138 3138 3138 3137 3137 3136 3139 3141 3142 3143 3142 3141 3142 3142 3141 3140 3138 3137 3136
3117 3119 3122 3123 3124 3125 3125 3128 3130 3131 3132 3129 3125 3128 3121 3121 3124 3126 3129 3132 3133 3133 3134 3135 3135 3136 3135 3134 3135 3134 3134 3134 3136 3136 3136 3137 3137 3138 3136 3136 3135 3133 3132 3130
3110 3110 3113 3116 3119 3119 3120 3124 3127 3129 3128 3120 3117 3118 3110 3116 3119 3122 3124 3124 3126 3126 3127 3127 3128 3131 3136 3135 3132 3131 3130 3130 3131 3131 3130 3130 3130 3130 3130 3129 3126 3124 3122 3119
3102 3104 3104 3107 3109 3112 3113 3116 3115 3118 3119 3112 3112 3107 3104 3107 3111 3115 3119 3120 3121 3122 3122 3122 3124 3126 3127 3127 3129 3128 3126 3124 3125 3126 3125 3125 3124 3121 3119 3118 3115 3112 3110 3108
3096 3097 3097 3100 3103 3108 3108 3109 3112 3110 3110 3110 3103 3098 3100 3103 3106 3109 3112 3115 3116 3117 3118 3118 3118 3119 3120 3123 3123 3122 3121 3120 3119 3118 3118 3117 3115 3113 3109 3106 3105 3103 3100 3098
3090 3092 3092 3094 3097 3100 3102 3104 3108 3109 3110 3111 3095 3094 3094 3096 3100 3104 3107 3109 3109 3109 3110 3112 3113 3113 3112 3115 3115 3117 3115 3113 3111 3110 3108 3107 3105 3102 3100 3098 3095 3092 3089 3087
3084 3087 3088 3088 3087 3089 3093 3095 3098 3100 3099 3098 3097 3087 3088 3093 3096 3098 3101 3103 3104 3103 3103 3102 3104 3107 3108 3109 3108 3109 3108 3105 3102 3100 3098 3097 3095 3094 3091 3089 3086 3084 3082 3080
3076 3079 3078 3080 3080 3082 3084 3085 3088 3088 3090 3088 3087 3079 3083 3088 3090 3091 3095 3095 3096 3098 3097 3097 3097 3100 3103 3103 3102 3101 3098 3096 3094 3091 3090 3089 3086 3084 3082 3080 3077 3075 3072 3070
3065 3069 3074 3074 3075 3074 3071 3072 3077 3082 3083 3077 3084 3072 3077 3079 3082 3085 3086 3088 3088 3090 3092 3092 3092 3094 3094 3093 3092 3091 3088 3085 3084 3082 3080 3079 3077 3075 3073 3070 3068 3066 3063 3061
3055 3057 3055 3052 3055 3058 3061 3063 3067 3072 3072 3073 3065 3068 3070 3073 3076 3077 3077 3079 3080 3082 3083 3083 3082 3084 3083 3083 3081 3079 3078 3077 3074 3071 3070 3070 3069 3067 3065 3062 3059 3057 3055 3052
3041 3040 3045 3048 3050 3051 3051 3053 3058 3059 3064 3066 3062 3061 3064 3069 3070 3070 3071 3070 3071 3072 3073 3072 3073 3073 3071 3071 3070 3070 3069 3066 3064 3062 3061 3061 3059 3057 3055 3054 3051 3048 3045 3042
3026 3028 3032 3036 3039 3043 3042 3042 3044 3050 3054 3054 3056 3050 3057 3060 3061 3061 3061 3062 3062 3063 3062 3062 3062 3062 3063 3063 3062 3060 3058 3056 3053 3052 3052 3050 3049 3049 3047 3044 3040 3038 3036 3033
3014 3016 3021 3024 3029 3033 3032 3020 3030 3033 3036 3041 3042 3041 3046 3049 3051 3052 3053 3053 3053 3053 3053 3052 3052 3052 3054 3053 3052 3050 3048 3045 3044 3044 3043 3042 3040 3039 3037 3034 3031 3029 3026 3024
3002 3009 3015 3015 3022 3021 3012 3011 3016 3022 3026 3029 3031 3034 3037 3038 3039 3041 3041 3042 3042 3044 3043 3044 3044 3044 3043 3042 3040 3038 3037 3035 3034 3034 3034 3033 3031 3029 3027 3024 3022 3020 3017 3014
2997 3002 3004 3006 3008 3005 3002 3003 3009 3009 3017 3020 3021 3026 3028 3028 3029 3031 3031 3029 3031 3033 3033 3034 3034 3033 3032 3030 3028 3027 3026 3026 3026 3026 3025 3022 3021 3019 3017 3015 3013 3011 3007 3004
2989 2993 2996 2998 2999 2998 2993 2997 3001 3005 3005 3009 3011 3015 3017 3018 3018 3021 3019 3021 3023 3024 3023 3025 3025 3023 3022 3019 3019 3018 3018 3015 3015 3015 3014 3012 3010 3009 3007 3005 3003 3000 2997 2994
2980 2985 2986 2988 2990 2988 2990 2992 2995 3000 3002 3001 3002 3004 3007 3009 3011 3011 3012 3013 3014 3014 3014 3015 3014 3012 3012 3011 3008 3010 3009 3009 3006 3005 3004 3002 3001 2999 2997 2994 2992 2989 2986 2983
2971 2978 2980 2984 2985 2983 2983 2985 2989 2990 2991 2994 2996 2997 3000 3002 3002 3003 3003 3003 3003 3003 3001 3001 3001 3001 3002 3001 3001 3000 3000 2999 2997 2995 2994 2992 2990 2988 2986 2983 2981 2978 2975 2972
2968 2967 2971 2975 2972 2972 2974 2977 2980 2983 2985 2988 2990 2991 2992 2992 2994 2993 2994 2994 2993 2992 2991 2991 2991 2992 2991 2992 2991 2991 2990 2989 2987 2985 2984 2982 2980 2977 2975 2972 2970 2967 2964 2960
2958 2960 2959 2963 2964 2966 2968 2972 2974 2977 2979 2979 2981 2982 2983 2984 2985 2983 2983 2982 2982 2983 2982 2982 2981 2982 2980 2981 2980 2980 2979 2978 2977 2975 2973 2971 2968 2966 2964 2961 2958 2955 2952 2948
2955 2951 2949 2952 2955 2959 2963 2965 2967 2969 2970 2971 2973 2974 2974 2974 2974 2974 2973 2974 2974 2974 2973 2972 2971 2970 2971 2971 2970 2970 2969 2967 2966 2964 2961 2959 2957 2955 2952 2949 2946 2943 2940 2936
2943 2940 2944 2948 2952 2953 2956 2958 2959 2960 2962 2964 2965 2965 2965 2965 2966 2966 2967 2967 2966 2965 2964 2964 2963 2960 2960 2960 2959 2959 2958 2956 2954 2952 2950 2948 2946 2944 2941 2938 2935 2931 2928 2925
Wind_Speed
21 23 25 19 16 16 18 19 21 20 18 20 22 23 24 26 29 29 27 24 24 20 18 19 21 17 14 10 8 8 9 10 9 10 12 12 10 9 8 8 7 5 4 4
25 29 20 19 20 21 22 21 25 22 23 25 26 30 29 28 32 30 29 26 23 17 18 20 20 17 13 11 9 9 10 9 10 10 10 9 8 9 10 8 8 7 7 7
30 23 19 20 22 24 26 27 27 24 24 27 30 36 32 27 26 27 28 27 22 19 20 21 19 16 13 10 9 10 11 11 11 11 10 11 11 11 12 12 10 10 9 9
25 30 31 31 31 29 31 27 23 22 21 18 13 9 12 15 9 12 14 16 18 20 21 23 19 16 13 12 12 13 13 15 12 11 11 12 13 12 12 11 11 11 12 15
30 26 22 25 28 28 29 26 22 18 16 21 24 13 6 10 13 14 15 16 18 20 23 21 20 18 15 15 16 16 15 17 15 13 13 12 11 12 12 14 18 21 25 28
37 35 30 26 23 17 16 16 13 13 14 6 22 21 5 8 7 12 12 15 19 20 20 19 19 18 17 17 17 18 18 16 16 15 14 15 16 20 23 27 31 34 34 33
30 33 32 29 22 19 20 17 4 2 3 6 11 14 25 12 11 11 13 16 18 18 19 19 21 18 18 17 18 20 19 18 16 17 17 18 23 26 31 33 34 35 35 35
17 10 28 26 30 21 26 26 8 7 4 3 9 11 7 13 16 16 15 16 15 17 19 22 19 19 19 19 20 21 19 18 18 18 23 27 31 34 36 35 35 35 35 36
15 16 15 21 25 27 23 30 25 5 5 3 9 11 14 15 15 14 16 17 17 19 20 25 26 27 22 21 22 20 20 20 23 27 30 33 35 34 34 36 37 38 39 38
20 8 17 27 21 30 25 15 13 13 1 4 6 14 14 15 14 12 11 13 17 21 23 26 28 24 22 23 22 20 21 26 30 33 34 33 33 34 35 37 38 39 39 40
36 21 12 24 28 30 32 28 16 11 10 5 2 5 6 15 9 6 10 14 20 22 25 26 25 24 24 23 23 27 31 35 37 36 37 37 36 35 36 38 39 39 39 38
40 20 24 27 24 31 32 33 34 24 10 14 9 15 16 13 14 15 16 15 20 22 23 23 22 22 22 25 31 35 37 38 39 37 37 36 36 37 37 38 38 37 37 37
34 23 17 11 22 27 33 37 34 34 32 31 11 9 16 13 17 22 28 17 16 19 22 23 26 26 32 36 39 41 39 34 34 35 36 36 36 36 37 36 35 35 35 35
32 37 34 31 20 24 38 37 35 35 31 28 39 38 31 32 33 34 23 23 25 27 27 28 30 33 37 41 41 35 30 31 34 35 35 35 35 36 35 34 33 34 35 36
43 40 43 43 31 27 24 23 28 36 37 33 40 38 39 38 37 34 33 33 33 29 29 33 38 39 39 37 30 28 31 34 35 35 35 34 34 33 31 32 34 36 39 40
50 38 46 39 37 37 37 41 39 34 36 38 40 47 41 41 42 43 38 34 32 35 40 40 36 35 31 27 28 32 34 33 34 34 33 33 29 29 32 35 37 39 40 39
53 48 31 24 35 37 31 52 45 44 42 41 45 46 41 38 34 30 32 36 39 39 34 31 29 27 27 29 33 36 33 31 33 32 31 31 30 33 35 37 39 39 38 40
49 44 38 17 19 8 25 33 22 24 27 30 30 25 22 23 26 30 32 34 33 35 29 28 28 30 32 35 37 36 33 28 28 30 30 32 36 37 36 38 39 39 41 42
37 39 19 13 25 23 23 25 21 19 26 20 20 26 26 25 29 32 32 34 28 27 28 30 32 33 36 38 35 32 29 26 27 30 35 38 38 37 38 39 40 40 43 43
32 34 33 17 7 10 23 16 16 22 32 26 22 22 22 23 29 26 26 24 25 27 27 29 34 36 39 33 30 28 27 29 32 33 33 33 33 33 34 37 39 41 42 43
32 28 33 25 14 13 28 28 20 15 24 21 18 19 21 21 17 19 22 23 26 30 30 33 36 33 30 28 27 28 29 29 27 28 29 30 31 33 35 37 39 41 43 43
24 19 21 22 13 14 28 28 26 22 19 19 17 15 17 18 25 27 27 28 29 30 33 33 32 30 26 27 29 28 27 27 28 28 29 30 31 33 35 38 39 40 43 43
20 28 20 21 18 22 16 12 13 15 16 19 21 22 28 29 28 28 28 26 28 31 31 30 29 27 28 29 29 28 27 29 29 29 30 31 33 34 37 38 40 41 41 42
25 28 31 32 34 32 23 19 22 21 21 23 22 25 27 28 28 26 25 26 29 30 30 28 29 30 30 30 31 31 31 31 30 31 33 33 33 36 38 40 41 43 42 43
26 27 33 36 35 29 28 23 20 20 22 23 24 25 26 25 25 25 26 27 29 28 27 29 31 31 31 31 31 33 34 33 33 35 35 33 34 36 39 41 42 42 41 40
35 40 35 26 20 18 18 18 18 20 24 25 23 23 26 28 28 26 24 27 29 27 28 30 33 34 32 30 31 33 33 34 35 35 32 32 35 38 40 42 41 40 40 39
Wind_Direction
250 247 250 275 279 264 260 260 267 274 272 268 267 266 267 269 270 275 278 277 283 282 264 275 291 291 290 282 278 274 269 270 271 273 263 264 264 270 278 284 287 292 297 311
249 254 268 259 255 256 254 257 263 270 271 274 276 275 274 269 271 273 272 273 273 259 257 272 285 287 281 265 270 273 271 267 263 256 258 258 253 260 274 264 264 270 282 288
256 258 257 253 254 257 259 262 268 274 274 276 282 282 281 279 272 266 262 260 257 256 267 280 282 282 274 265 270 271 269 266 260 257 259 264 265 269 276 268 266 271 281 291
262 255 255 258 259 260 258 260 267 269 272 271 276 287 279 284 252 250 249 242 245 257 266 276 273 271 268 267 276 276 277 270 263 262 263 265 266 263 264 268 278 287 296 302
258 262 259 257 265 261 259 260 263 260 256 268 268 264 237 246 258 256 252 251 253 258 271 271 266 259 259 259 266 264 254 253 255 256 273 266 267 272 281 288 293 299 298 297
254 254 256 257 253 240 237 236 240 255 251 244 254 234 228 226 217 231 237 256 264 271 268 263 258 254 249 250 254 257 255 254 261 266 269 276 283 289 292 297 298 297 294 290
250 248 246 244 234 225 217 207 188 231 204 227 209 218 233 204 192 203 230 234 247 257 257 257 259 259 261 253 252 253 250 253 256 261 266 277 290 293 292 291 293 294 296 296
228 236 223 226 227 227 215 202 194 205 198 215 186 225 227 209 219 228 232 228 254 254 260 262 261 264 260 257 252 250 250 251 259 271 286 294 295 295 294 295 295 295 297 299
220 227 220 215 224 215 207 211 228 260 252 281 231 232 229 216 209 224 227 247 255 261 267 269 272 270 254 248 245 243 251 261 276 288 292 292 292 292 293 296 298 301 302 303
227 220 214 210 210 217 220 221 205 212 218 267 251 238 234 196 195 220 236 244 251 260 265 269 267 251 241 234 236 252 272 284 288 290 292 292 292 294 296 299 303 306 307 308
225 224 213 207 213 215 210 215 211 212 221 194 259 234 178 187 192 232 257 262 271 271 272 272 257 241 236 239 254 273 284 290 294 295 296 295 297 298 299 301 302 302 301 302
221 230 230 222 226 222 229 241 235 219 215 224 234 254 216 242 266 274 283 283 283 277 272 261 243 244 252 266 279 287 290 291 290 288 289 292 293 294 294 295 295 295 297 298
218 218 221 225 231 223 223 225 229 236 239 235 218 248 234 250 272 282 295 287 276 273 269 261 262 264 275 281 285 287 286 282 282 286 289 291 288 287 289 289 291 294 294 295
222 228 223 228 232 226 222 228 229 233 232 239 240 255 256 270 275 284 283 278 272 273 268 263 265 275 278 281 281 277 276 284 288 290 287 282 282 286 288 289 290 292 294 295
228 219 225 236 240 241 228 228 232 237 244 238 259 259 267 272 276 279 282 278 277 271 271 276 280 279 276 275 270 277 286 290 289 284 281 278 282 286 286 289 291 292 295 295
219 222 223 228 232 237 246 250 249 247 247 251 256 260 263 266 272 276 279 279 271 273 280 279 273 272 269 265 277 286 289 287 282 279 276 277 280 286 291 289 290 292 293 292
215 212 214 225 238 247 255 250 247 247 249 253 251 273 275 274 273 273 272 269 272 275 273 270 269 266 265 274 282 291 288 279 279 277 276 277 282 291 289 288 290 292 290 290
213 215 221 224 197 217 242 256 245 253 262 255 256 264 270 269 265 263 267 268 268 272 268 271 272 271 274 280 289 290 288 281 276 274 274 279 286 286 283 284 287 286 286 290
220 222 211 206 205 248 252 246 250 250 263 251 252 270 275 265 264 268 271 268 264 266 269 271 273 277 281 290 289 287 282 280 276 276 279 281 280 278 278 280 281 281 284 291
213 218 217 207 200 206 259 253 249 255 260 269 271 275 266 262 266 275 261 262 270 272 273 276 279 281 287 286 284 283 285 282 281 279 276 275 277 277 276 276 277 280 286 289
201 208 216 223 227 247 252 268 257 232 269 281 283 275 273 270 263 254 266 272 275 279 277 279 283 285 287 284 282 287 286 284 279 277 279 279 278 279 279 279 280 283 288 291
206 206 219 228 241 254 257 252 247 264 267 276 278 280 281 271 280 283 283 283 280 281 283 286 289 291 286 283 287 289 287 284 283 286 288 285 282 281 281 282 284 285 288 290
227 239 238 231 252 254 251 239 260 270 272 276 274 277 278 278 283 282 282 282 283 286 290 291 290 288 286 290 291 290 288 285 287 289 290 287 283 283 285 285 288 288 288 290
241 256 249 248 250 250 253 268 272 271 270 273 273 275 277 281 280 277 280 284 286 287 288 288 288 292 295 294 292 289 291 290 290 292 291 286 284 285 287 289 290 291 289 290
255 257 249 247 250 260 272 278 272 268 265 267 275 275 271 266 269 275 281 284 284 281 284 287 291 295 297 289 286 285 288 289 290 292 291 286 285 285 288 289 290 289 289 288
249 251 253 259 268 274 278 279 270 266 265 267 263 258 261 267 268 272 278 283 279 281 285 288 292 294 292 288 286 286 289 289 291 292 288 286 288 290 292 293 292 290 289 289